[[{"header":{"parameterUnit":"m.s-1","parameterCategory":1,"la1":30.2991,"la2":30.254,"lo1":-89.0895,"lo2":-89.0444,"dy":0.0017,"dx":0.0017,"nx":28,"ny":28,"refTime":"2024-07-31T21:00:00:Z","depth":0,"parameterNumber":2,"parameterNumberName":"U-component_of_WINDS"},"data":[0,0,0,0,0,0,0,0,0,0,0,0,0,0,0,0,0,0,0,0,0,0,0,0,0,0,0,0,0,0,0,0,0,0,0,0,0,0,0,0,0,0,0,0,0,0,0,0,0,0,0,0,0,0,0,0,0,0,2.9565,2.9565,0,2.9584,2.9584,2.9584,2.9498,2.9495,2.9493,2.9491,2.9514,2.9517,2.952,0,0,0,0,0,0,0,0,0,0,0,0,0,2.9457,2.946,2.9565,2.9565,2.9566,2.9584,2.9584,2.9584,2.9498,2.9495,2.9492,2.9489,2.9513,2.9517,2.952,0,0,0,0,0,0,0,0,0,0,0,0,0,2.9493,2.946,2.9565,2.9525,2.9521,2.9584,2.9584,2.9584,2.9499,2.9495,2.9492,2.9488,2.9512,2.9516,2.9521,2.9624,0,0,2.9534,2.9536,0,0,0,0,0,0,0,0,2.9491,2.9497,2.953,2.9528,2.9524,2.9534,2.9554,2.9598,2.95,2.9508,2.9491,2.9486,2.9524,2.9527,2.9539,2.9625,2.9626,2.9535,2.9537,2.9539,2.9541,0,0,0,0,0,0,0,2.9489,2.9496,2.9572,2.9531,2.9527,2.9506,2.9507,2.9562,2.9537,2.9507,2.9501,2.9504,2.9522,2.9535,2.9539,2.9626,2.9535,2.9538,2.9541,2.9543,2.9793,2.9797,0,0,0,0,0,0,2.9491,2.9494,2.9572,2.9573,2.9498,2.9511,2.9512,2.9535,2.9536,2.9533,2.9507,2.95,2.953,2.9534,2.954,2.9657,2.9539,2.9543,2.9546,2.9789,2.9794,2.9798,0,0,0,0,0,0,2.9489,2.9499,2.9571,2.9532,2.9539,2.9517,2.9543,2.9537,2.9551,2.9536,2.9532,2.9525,2.9527,2.9534,2.9602,2.9657,2.9545,2.9549,2.9785,2.9791,2.9796,2.9896,0,0,0,0,0,0,2.9486,2.9499,2.9537,2.9533,2.9542,2.9633,2.9547,2.9541,2.9558,2.9549,2.9552,2.9549,2.9524,2.9596,2.9607,2.9661,2.9553,2.978,2.9787,2.9794,2.9887,2.9904,2.9919,0,0,0,0,0,2.9483,2.9567,2.954,2.955,2.959,2.9637,2.9641,2.961,2.9563,2.9601,2.9592,2.9549,2.965,2.9604,2.9615,2.9672,2.9776,2.9785,2.9794,2.988,2.9901,2.9918,0,0,0,0,0,0,2.958,2.9565,2.9536,2.962,2.963,2.9622,2.967,2.9633,2.9658,2.9648,2.9609,2.9611,2.9686,2.9686,2.9635,2.977,2.9705,2.9716,2.9767,2.9786,2.9801,2.9799,2.9557,0,0,0,0,0,2.9611,2.9649,2.9635,2.9711,2.9717,2.9693,2.9712,2.9686,2.9696,2.97,2.9695,2.9707,2.974,2.9764,2.9794,2.9887,2.9885,2.9932,2.9947,2.996,2.997,3.0016,3.0036,2.9828,2.9828,2.9828,0,0,2.9676,2.9673,2.97,2.973,2.9735,2.9775,2.9697,2.9744,2.9773,2.9708,2.977,2.9768,2.9778,2.9858,2.9894,2.9861,3.0027,2.9972,2.9982,2.9985,3.0027,3.0047,3.0064,2.9834,2.9833,2.9832,0,0,2.9814,2.9817,2.9878,2.9883,2.989,2.9873,2.9888,2.9884,2.9879,2.9942,2.9892,2.9927,2.9987,2.9995,3.0007,3.0145,3.0105,3.0156,3.0238,3.0283,3.0299,3.0313,3.036,3.0377,3.0167,3.0167,3.0167,0,2.9894,2.9952,2.9915,2.9964,2.9978,2.9918,2.9979,2.9987,3.0004,3.0015,2.9978,3.0049,3.0052,3.0132,3.0165,3.0178,3.0192,3.0155,3.03,3.0313,3.0326,3.037,3.0388,3.0173,3.0172,3.0172,3.0171,0,3.0049,3.0089,3.0139,3.0153,3.0173,3.0229,3.02,3.0225,3.0197,3.0184,3.0247,3.0248,3.0276,3.0293,3.0269,3.0369,3.0347,3.0306,3.0239,3.0352,3.0393,3.0409,3.0181,3.0179,3.0177,3.0176,0,0,3.0249,3.024,3.0259,3.0263,3.0265,3.0296,3.0348,3.0373,3.0393,3.0408,3.0449,3.05,3.046,3.0473,3.0449,3.0489,3.0594,3.0441,3.0441,3.0467,3.0701,3.073,3.075,3.0568,3.0571,3.0574,3.0699,0,3.0382,3.0468,3.0435,3.0524,3.0559,3.0502,3.0546,3.0553,3.0541,3.057,3.0558,3.0593,3.054,3.0547,3.0584,3.0573,3.064,3.0564,3.0605,3.0607,3.0602,3.0772,3.0804,3.0922,3.0715,3.0718,3.072,0,3.0548,3.0565,3.0656,3.0648,3.0662,3.0703,3.0721,3.075,3.0755,3.0744,3.0758,3.0723,3.0773,3.0708,3.0776,3.0725,3.074,3.0737,3.0741,3.0742,3.0669,3.0775,3.0959,3.0976,3.0745,3.0743,3.0741,0,3.0681,3.0727,3.0787,3.0793,3.0786,3.0815,3.0814,3.0815,3.0831,3.0848,3.0858,3.0882,3.0894,3.0913,3.0886,3.0842,3.0956,3.089,3.0947,3.0948,3.0973,3.0971,3.116,3.0987,3.0987,3.0987,3.0986,0,3.0831,3.0889,3.0845,3.0882,3.0944,3.0906,3.0969,3.0962,3.0963,3.0996,3.095,3.0983,3.0946,3.0975,3.0955,3.1012,3.1019,3.1011,3.1004,3.1013,3.1014,3.1021,3.1011,3.0991,3.099,3.0989,3.0989,0,3.099,3.0963,3.1024,3.1011,3.1009,3.1055,3.1044,3.1078,3.1062,3.1105,3.1113,3.109,3.1122,3.1096,3.1129,3.1115,3.1189,3.1173,3.1187,3.1181,3.1239,3.1233,3.1437,3.146,3.1276,3.1277,3.1279,0,3.1086,3.1128,3.1119,3.1136,3.1137,3.1168,3.1183,3.1147,3.1165,3.1172,3.1204,3.1231,3.1251,3.1305,3.1291,3.1315,3.1296,3.1366,3.13,3.1306,3.1294,3.129,3.1293,3.1379,3.1381,3.1383,3.1384,0,3.1258,3.1242,3.1265,3.1282,3.13,3.1313,3.1322,3.134,3.1303,3.1325,3.1356,3.1371,3.1402,3.1429,3.1448,3.1447,3.1409,3.1406,3.1419,3.1428,3.1433,3.1428,3.122,3.1401,3.1399,3.1398,3.1397,3.1396,3.1386,3.142,3.1417,3.1443,3.1445,3.1454,3.1483,3.1469,3.1494,3.1514,3.1492,3.1529,3.153,3.1551,3.1554,3.1582,3.1554,3.1575,3.158,3.1585,3.1591,3.1431,3.1586,3.1586,3.1585,3.1585,3.1585,0,3.1553,3.1548,3.1572,3.1584,3.1604,3.1565,3.1572,3.1592,3.1624,3.1628,3.1647,3.1681,3.1706,3.1694,3.1716,3.174,3.1724,3.1747,3.1744,3.1744,3.1618,3.1602,3.176,3.176,3.176,3.176,3.176,3.176,3.1642,3.1695,3.1679,3.1732,3.1726,3.1759,3.1766,3.1774,3.1776,3.1815,3.1835,3.1826,3.1823,3.1843,3.1865,3.186,3.1869,3.1899,3.1888,3.177,3.1753,3.1736,3.1721,3.1902,3.1902,3.2011,3.2012,3.2013]},{"header":{"parameterUnit":"m.s-1","parameterCategory":1,"la1":30.2991,"la2":30.254,"lo1":-89.0895,"lo2":-89.0444,"dy":0.0017,"dx":0.0017,"nx":28,"ny":28,"refTime":"2024-07-31T21:00:00:Z","depth":0,"parameterNumber":3,"parameterNumberName":"V-component_of_WINDS"},"data":[0,0,0,0,0,0,0,0,0,0,0,0,0,0,0,0,0,0,0,0,0,0,0,0,0,0,0,0,0,0,0,0,0,0,0,0,0,0,0,0,0,0,0,0,0,0,0,0,0,0,0,0,0,0,0,0,0,0,2.4461,2.4462,0,2.4576,2.4577,2.4578,2.4591,2.4589,2.4588,2.4587,2.47,2.4704,2.4708,0,0,0,0,0,0,0,0,0,0,0,0,0,2.4247,2.4251,2.4461,2.4462,2.4464,2.4575,2.4577,2.4579,2.4591,2.4589,2.4588,2.4587,2.4699,2.4704,2.4709,0,0,0,0,0,0,0,0,0,0,0,0,0,2.4349,2.4253,2.4461,2.4483,2.4486,2.4575,2.4577,2.4579,2.4591,2.4589,2.4588,2.4586,2.4698,2.4703,2.471,2.4782,0,0,2.4728,2.4731,0,0,0,0,0,0,0,0,2.4343,2.4357,2.4478,2.4482,2.4486,2.4567,2.4543,2.4647,2.4591,2.4551,2.4587,2.4585,2.4657,2.4667,2.4692,2.4787,2.4792,2.4729,2.4733,2.4735,2.4737,0,0,0,0,0,0,0,2.4336,2.4352,2.4506,2.448,2.4485,2.4486,2.4499,2.4563,2.4612,2.4555,2.4556,2.4569,2.4659,2.4686,2.4694,2.4794,2.4729,2.4734,2.4738,2.474,2.4953,2.4955,0,0,0,0,0,0,2.4325,2.4346,2.4502,2.451,2.4409,2.4491,2.4505,2.4543,2.4612,2.4621,2.4571,2.457,2.4676,2.4687,2.4699,2.4787,2.4735,2.4741,2.4744,2.4951,2.4954,2.4956,0,0,0,0,0,0,2.4321,2.4339,2.4498,2.4428,2.4448,2.4497,2.4539,2.4546,2.4573,2.4624,2.4632,2.459,2.4675,2.469,2.4761,2.4791,2.4744,2.4749,2.4949,2.4952,2.4955,2.4966,0,0,0,0,0,0,2.4315,2.4338,2.4367,2.4429,2.4452,2.456,2.4541,2.4549,2.4584,2.4583,2.4644,2.4652,2.4675,2.4752,2.4767,2.4799,2.4754,2.4946,2.495,2.4954,2.4963,2.4969,2.4974,0,0,0,0,0,2.4307,2.4365,2.4368,2.4387,2.449,2.4562,2.4575,2.4601,2.4586,2.4615,2.4648,2.465,2.4786,2.4759,2.4777,2.481,2.4945,2.4949,2.4953,2.496,2.4967,2.4973,0,0,0,0,0,0,2.4304,2.4373,2.4378,2.4458,2.4504,2.4564,2.4601,2.4608,2.4659,2.4656,2.4685,2.4698,2.4768,2.4796,2.4766,2.4883,2.4863,2.4871,2.4863,2.487,2.4875,2.4866,2.4759,0,0,0,0,0,2.4313,2.4367,2.4424,2.4489,2.4512,2.4553,2.4585,2.4601,2.4649,2.4669,2.4707,2.4752,2.4805,2.4839,2.489,2.4967,2.4979,2.4998,2.5004,2.5008,2.5014,2.5056,2.5064,2.497,2.497,2.497,0,0,2.4331,2.4376,2.4408,2.4489,2.4527,2.4581,2.4569,2.4626,2.4666,2.4677,2.4747,2.4776,2.4829,2.4903,2.4937,2.4928,2.5043,2.5014,2.5017,2.5021,2.5061,2.507,2.5078,2.4973,2.4973,2.4972,0,0,2.4392,2.4432,2.449,2.4528,2.4585,2.4612,2.4626,2.4685,2.4705,2.4776,2.4785,2.4831,2.4922,2.4959,2.4989,2.5063,2.5067,2.5079,2.5107,2.5147,2.5154,2.5161,2.5186,2.5195,2.5085,2.5085,2.5085,0,2.4407,2.449,2.4518,2.4576,2.4611,2.4624,2.4682,2.4717,2.4788,2.481,2.48,2.4913,2.495,2.5032,2.505,2.5075,2.509,2.5072,2.5151,2.5158,2.5164,2.5189,2.5198,2.5086,2.5086,2.5086,2.5086,0,2.4506,2.4563,2.4602,2.4671,2.4711,2.4768,2.4803,2.4839,2.4851,2.4879,2.4949,2.4994,2.5054,2.5074,2.5087,2.5158,2.5151,2.5145,2.5125,2.5174,2.5197,2.5207,2.5088,2.5087,2.5087,2.5087,0,0,2.4568,2.4652,2.4666,2.4697,2.4761,2.4805,2.4862,2.4922,2.4951,2.4999,2.5047,2.5123,2.5118,2.5153,2.5169,2.5204,2.5258,2.5194,2.5196,2.5204,2.5338,2.5341,2.5351,2.5261,2.5263,2.5264,2.5333,0,2.4636,2.4739,2.4766,2.4853,2.4906,2.4918,2.4968,2.5011,2.5038,2.5085,2.5113,2.5167,2.5157,2.5178,2.5213,2.5244,2.5285,2.524,2.5304,2.5306,2.529,2.5364,2.5368,2.543,2.5342,2.5344,2.5345,0,2.4729,2.478,2.4873,2.4929,2.4952,2.4996,2.5052,2.5098,2.5147,2.5163,2.5202,2.5215,2.5273,2.525,2.5329,2.5298,2.5325,2.5344,2.5347,2.5354,2.5328,2.5371,2.5451,2.546,2.536,2.5359,2.5358,0,2.4764,2.4855,2.4923,2.4949,2.5017,2.5047,2.5077,2.5124,2.5158,2.5207,2.5229,2.5283,2.5312,2.5353,2.538,2.5361,2.5456,2.5436,2.547,2.547,2.549,2.5488,2.5574,2.5509,2.5508,2.5508,2.5508,0,2.4836,2.4892,2.4939,2.4981,2.5043,2.5072,2.5133,2.5162,2.5204,2.525,2.5264,2.5307,2.534,2.5386,2.5407,2.5468,2.5482,2.5496,2.55,2.5494,2.5492,2.5512,2.5508,2.5511,2.551,2.551,2.5509,0,2.4885,2.492,2.4994,2.5052,2.5068,2.5111,2.516,2.52,2.5227,2.5284,2.5299,2.5341,2.5396,2.5427,2.5496,2.551,2.5578,2.5581,2.5562,2.5564,2.5596,2.5592,2.5698,2.5712,2.5638,2.5638,2.5639,0,2.4929,2.4973,2.5036,2.5068,2.5098,2.515,2.5185,2.5215,2.525,2.5309,2.5341,2.5397,2.5444,2.5531,2.5567,2.5619,2.5623,2.5656,2.5631,2.5623,2.5622,2.5619,2.5623,2.566,2.5661,2.5661,2.5662,0,2.5002,2.5017,2.5067,2.5124,2.5165,2.5211,2.5256,2.5281,2.5318,2.5356,2.5414,2.545,2.5521,2.5576,2.5631,2.566,2.5666,2.567,2.568,2.5674,2.566,2.5667,2.5573,2.5667,2.5666,2.5666,2.5666,2.5665,2.505,2.5088,2.5139,2.5194,2.5231,2.5273,2.5313,2.5345,2.5394,2.5455,2.5469,2.5529,2.5575,2.565,2.568,2.5726,2.572,2.5735,2.5739,2.5742,2.5743,2.5654,2.5736,2.5736,2.5736,2.5736,2.5736,0,2.5122,2.5155,2.5206,2.5269,2.5312,2.5316,2.5366,2.5401,2.5455,2.5498,2.5544,2.5609,2.5662,2.5702,2.5756,2.5785,2.5789,2.5798,2.5796,2.5802,2.5746,2.5731,2.5794,2.5794,2.5794,2.5794,2.5794,2.5794,2.5165,2.5231,2.5252,2.5335,2.5368,2.5428,2.5455,2.5493,2.5528,2.5601,2.5646,2.5672,2.5713,2.577,2.5819,2.5829,2.5847,2.5856,2.5866,2.5812,2.5806,2.58,2.5786,2.586,2.586,2.5918,2.5918,2.5919]}]]